Location: Leiter
(44.7178°N, 106.2687°W)
Time: 23:34:31
(UTC+00:00)

DX 1 - Pass Details

Date: 11 July 2022
Orbit: 616 x 630 km, 98.4° (Epoch: 18 August)

Event Time Altitude Azimuth Distance (km) Brightness Sun altitude
Rises 04:37:26 0° 10° (N) 2,926 ? -14.6°
Reaches altitude 10° 04:39:39 10° 8° (N) 2,012 ? -14.8°
Maximum altitude 04:43:59 66° 287° (WNW) 687 ? -15.3°
Drops below altitude 10° 04:48:16 10° 205° (SSW) 1,988 ? -15.7°
Enters shadow 04:48:39 - 205° (SSW) 2,144 ? -15.7°
